Airfield :
LOGIN :

Register | Disclaimer

   EN    FR    IT 

 










Legend :    VFR   Marginal VFR   IFR   Intensive IFR   Very Intensive IFR
Visi :
Ceiling :
>= 8 km
>= 3000ft
5 to 8 km
1000 to 3000 ft
1500m to 5 km
500 to 1000 ft
800 to 1500m
200 to 500 ft
< 800m
< 200 ft
Symbols :   Thunderstorms  Fog  Heavy snow  Heavy precipitations  Wind > 20 kt
SIGMETs :     Misc.  Thunderstorms  Icing  Turbulence  Mountain Waves  Volcanic Ashes







- Airport Elevation : 1516 ft
- IATA code : AGB


EDMA - Augsburg

CURRENT METAR :
  • 211150Z 28003KT 230V310 CAVOK 18/07 Q1024

EXPIRED METARs :
  • 211120Z VRB02KT CAVOK 18/07 Q1025
  • 211050Z VRB03KT 9999 FEW047 18/08 Q1025
  • 211020Z 28003KT 230V330 CAVOK 18/07 Q1025
  • 210950Z VRB02KT 9999 FEW041 18/09 Q1025
  • 210920Z VRB01KT 9999 FEW033 17/09 Q1025

TAF TAF EDMA
Valid from the 21 at 12:00 until the 21 at 21:00 UTC


211100Z 2112/2121 31005KT 9999 FEW045
BECMG 2118/2120 VRB03KT
No reported NOTAMs for that airfield.



MET'MAP, your aeronautical weather chart ! - Copyright ORBIFLY December 2007 - Disclaimer

ORBIFLY MET'MAP TEAM :

Programming & Development : Alexandra Zaïnal
Concept & Development : Baudouin d'Aumeries
Co-Development & Prog : Marc-Olivier Méhu
Technical & hardware support : Manuel Goepfert

Contact : metmap@orbifly.com




SOURCES & CREDITS :

   NOAA